Regional Weather Roundup
Issued by NWS Cleveland, OH

Home | Current Version | Previous Version | Graphics & Text | Print | Product List | Glossary On
Versions: 1 2 3 4 5 6 7 8 9 10 11 12 13 14 15 16 17 18 19 20 21 22 23 24 25 26 27 28 29 30 31 32 33 34 35 36 37 38 39 40 41 42 43 44 45 46 47 48 49 50
000
ASUS41 KCLE 191610
RWRCLE
OHIO REGIONAL WEATHER ROUNDUP
NATIONAL WEATHER SERVICE WILMINGTON, OH
1200 PM EDT SUN APR 19 2015

NOTE: "FAIR" INDICATES FEW OR NO CLOUDS BELOW 12,000 FEET WITH NO
SIGNIFICANT WEATHER AND/OR OBSTRUCTIONS TO VISIBILITY.

OHZ001>008-015>018-024>027-034-035-043-044-191700-
   NORTHWEST OHIO

CITY           SKY/WX    TMP DP  RH WIND       PRES   REMARKS
DEFIANCE       MOSUNNY   63  37  38 E17       29.84F
FINDLAY        PTSUNNY   66  43  43 E14       29.83F
TOLEDO EXPRESS MOSUNNY   55  35  47 E17G26    29.88F
TOLEDO EXEC    MOSUNNY   54  36  50 NE15      29.91F
LIMA           PTSUNNY   72  49  44 SE13G21   29.81F
$$

OHZ009>014-019>023-028>033-038-089-191700-
   NORTHEAST OHIO

CITY           SKY/WX    TMP DP  RH WIND       PRES   REMARKS
CLE-HOPKINS    PTSUNNY   65  40  39 SE12G22   29.93F
CLE-LAKEFRONT  PTSUNNY   53  44  71 N13       29.91F
CUY CO. ARPT   LGT RAIN  57  46  67 E14G23    29.94F
LORAIN-ELYRIA  MOSUNNY   66  42  41 SE16      29.89F
ASHTABULA      MOSUNNY   66  32  28 SE20      29.99F
AKRON-CANTON   CLOUDY    70  42  36 SE20G26   29.92F
WOOSTER        SUNNY     69  45  41 SE18G25   29.90F
MANSFIELD      MOSUNNY   71  46  40 SE18      29.87F
YOUNGSTOWN     PTSUNNY   67  34  29 SE18G30   29.97F
$$

OHZ042-051>053-060>062-070>072-077>081-191700-
  SOUTHWEST OHIO

CITY           SKY/WX    TMP DP  RH WIND       PRES   REMARKS
CINC-COVINGTON LGT RAIN  60  57  89 E13       29.75F FOG
CINC-LUNKEN    LGT RAIN  61  58  90 E5        29.77F FOG
HAMILTON       LGT RAIN  62  56  80 E6        29.78F
DAYTON         CLOUDY    66  51  58 SE10      29.79F
WRIGHT-PAT AFB LGT RAIN  67  52  58 SE13      29.78F
DAYTON GENERAL LGT RAIN  63  53  70 SE12      29.78F
WILMINGTON     LGT RAIN  65  56  72 SE14G28   29.79F
$$

OHZ036-037-039>041-045>050-054>059-063>069-073>076-082>088-191700-
  CENTRAL AND SOUTHEAST OHIO

CITY           SKY/WX    TMP DP  RH WIND       PRES   REMARKS
COLUMBUS       CLOUDY    73  52  47 SE16G29   29.82F
OSU AIRPORT    CLOUDY    72  53  51 SE17G24   29.81F
BOLTON FIELD   CLOUDY    72  55  56 SE15G22   29.93R
RICKENBACK AFB CLOUDY    72  54  53 SE15G24   29.82F
NEWARK         CLOUDY    74  49  41 SE15G25   29.84F
MARION         PTSUNNY   73  51  46 SE20      29.83F
LANCASTER      CLOUDY    72  51  47 SE17      29.84F
ZANESVILLE     PTSUNNY   73  46  38 SE12G23   29.87F
NEW PHILLY     MOSUNNY   74  44  34 SE15G22   29.91F
$$


USA.gov is the U.S. government's official web portal to all federal, state and local government web resources and services.